FW2931 Weather Reports


Display with metric or nautical units.
time (UTC)temp
F
wind
direction
speed
MPH
gust
MPH
rain 1hr
in
rain 24hr
in
rain mn
in
humidity
%
barometer
mb
20191020070059 62 315 7.0 15.0 0.00 0.00 0.00 81 1009.3
20191020065549 62 90 6.0 20.0 0.00 0.00 0.00 81 1009.5
20191020065039 62 90 4.0 20.0 0.00 0.00 0.00 81 1009.4
20191020064532 62 135 5.0 20.0 0.00 0.00 0.00 81 1009.4
20191020064018 62 90 6.0 20.0 0.00 0.00 0.00 81 1009.7
20191020062958 62 90 3.0 13.0 0.00 0.00 0.00 81 1009.7
20191020062448 62 0 5.0 11.0 0.00 0.00 0.00 81 1009.5
20191020061955 62 135 5.0 0.0 0.00 0.00 0.00 81 1009.7
20191020061721 62 135 5.0 0.0 0.00 0.00 0.00 81 1009.7
20191020061123 62 135 4.0 13.0 0.00 0.00 0.00 81 1009.5
20191020060613 62 180 4.0 21.0 0.00 0.00 0.00 81 1009.7
20191020060106 62 45 6.0 21.0 0.00 0.00 0.00 81 1009.5
20191020055552 62 0 4.0 16.0 0.00 0.00 0.00 80 1009.7
20191020055043 63 338 8.0 16.0 0.00 0.00 0.00 80 1009.8
20191020054533 63 135 5.0 16.0 0.00 0.00 0.00 80 1009.9
20191020054022 63 0 5.0 17.0 0.00 0.00 0.00 80 1009.9
20191020053516 63 45 8.0 18.0 0.00 0.00 0.00 80 1009.9
20191020053002 63 90 6.0 18.0 0.00 0.00 0.00 80 1009.8
20191020052452 63 90 4.0 15.0 0.00 0.00 0.00 79 1010.0
20191020051942 63 45 7.0 15.0 0.00 0.00 0.00 79 1009.8
20191020051432 63 45 7.0 21.0 0.00 0.00 0.00 79 1009.7
20191020050924 63 90 11.0 21.0 0.00 0.00 0.00 79 1009.7
20191020050412 63 45 8.0 17.0 0.00 0.00 0.00 79 1009.8
20191020045901 63 45 8.0 16.0 0.00 0.00 0.00 79 1009.9
20191020045351 63 45 7.0 16.0 0.00 0.00 0.00 78 1009.7
20191020044842 63 90 6.0 21.0 0.00 0.00 0.00 78 1009.7
20191020044333 63 90 7.0 21.0 0.00 0.00 0.00 78 1009.5
20191020043820 63 68 9.0 23.0 0.00 0.00 0.00 78 1009.7
20191020043330 63 135 11.0 23.0 0.00 0.00 0.00 78 1009.7
20191020042800 63 0 8.0 21.0 0.00 0.00 0.00 78 1009.9
20191020042250 63 45 11.0 21.0 0.00 0.00 0.00 78 1010.0
20191020041743 64 90 7.0 17.0 0.00 0.00 0.00 78 1010.0
20191020041230 63 45 10.0 21.0 0.00 0.00 0.00 77 1010.0
20191020040720 63 180 7.0 21.0 0.00 0.00 0.00 77 1010.1
20191020040210 63 45 5.0 17.0 0.00 0.00 0.00 77 1010.3
20191020035700 64 45 8.0 17.0 0.00 0.00 0.00 77 1010.3
20191020035152 64 45 9.0 17.0 0.00 0.00 0.00 77 1010.3
20191020034640 64 90 6.0 17.0 0.00 0.00 0.00 77 1010.4
20191020034129 64 338 5.0 14.0 0.00 0.00 0.00 77 1010.5
20191020033619 64 180 6.0 17.0 0.00 0.00 0.00 76 1010.5
20191020033109 64 45 5.0 17.0 0.00 0.00 0.00 76 1010.6
20191020032601 64 135 8.0 20.0 0.00 0.00 0.00 76 1010.6
20191020032049 64 45 6.0 20.0 0.00 0.00 0.00 76 1010.8
20191020031538 64 0 5.0 22.0 0.00 0.00 0.00 76 1010.7
20191020031029 64 293 8.0 22.0 0.00 0.00 0.00 75 1010.8
20191020030518 64 180 5.0 21.0 0.00 0.00 0.00 75 1010.9
20191020030011 64 90 10.0 18.0 0.00 0.00 0.00 75 1010.9
20191020025458 64 45 6.0 17.0 0.00 0.00 0.00 74 1011.1
20191020024948 65 45 8.0 17.0 0.00 0.00 0.00 74 1011.3
20191020024438 65 45 8.0 20.0 0.00 0.00 0.00 74 1011.5
20191020023928 65 68 8.0 20.0 0.00 0.00 0.00 73 1011.5
20191020023420 65 45 7.0 17.0 0.00 0.00 0.00 73 1011.6
20191020022907 65 45 10.0 20.0 0.00 0.00 0.00 73 1011.6
20191020022357 65 0 4.0 20.0 0.00 0.00 0.00 72 1011.7
20191020021847 66 135 7.0 17.0 0.00 0.00 0.00 72 1011.6
20191020021336 66 0 5.0 18.0 0.00 0.00 0.00 71 1011.9
20191020020829 66 45 9.0 18.0 0.00 0.00 0.00 70 1011.8
20191020020316 66 0 8.0 21.0 0.00 0.00 0.00 70 1011.9
20191020015806 66 135 10.0 21.0 0.00 0.00 0.00 69 1011.9
20191020015256 67 135 7.0 18.0 0.00 0.00 0.00 68 1011.8
20191020014746 67 0 5.0 16.0 0.00 0.00 0.00 67 1012.0
20191020014240 67 90 8.0 17.0 0.00 0.00 0.00 66 1012.0
20191020013726 67 0 7.0 17.0 0.00 0.00 0.00 65 1011.9
20191020013215 67 45 5.0 18.0 0.00 0.00 0.00 65 1011.8
20191020012705 67 45 7.0 23.0 0.00 0.00 0.00 65 1011.7
20191020012155 67 0 6.0 23.0 0.00 0.00 0.00 64 1011.6
20191020011648 67 180 4.0 15.0 0.00 0.00 0.00 64 1011.8
20191020011135 67 45 7.0 15.0 0.00 0.00 0.00 64 1011.9
20191020010625 67 0 5.0 17.0 0.00 0.00 0.00 64 1012.0
20191020010115 67 68 5.0 17.0 0.00 0.00 0.00 64 1011.9
20191020005605 68 45 5.0 15.0 0.00 0.00 0.00 65 1012.0
20191020005108 68 45 7.0 15.0 0.00 0.00 0.00 65 1011.9
20191020004544 68 0 6.0 15.0 0.00 0.00 0.00 64 1012.1
20191020004035 68 90 5.0 15.0 0.00 0.00 0.00 64 1012.1
20191020003524 68 45 7.0 15.0 0.00 0.00 0.00 64 1012.1
20191020003014 68 0 5.0 17.0 0.00 0.00 0.00 64 1012.1
20191020002507 68 90 8.0 17.0 0.00 0.00 0.00 63 1012.2
20191020001953 68 0 8.0 18.0 0.00 0.00 0.00 63 1012.1
20191020001443 68 45 4.0 18.0 0.00 0.00 0.00 63 1012.1
20191020000933 68 0 7.0 15.0 0.00 0.00 0.00 63 1012.1
20191020000423 69 0 6.0 18.0 0.00 0.00 0.00 63 1012.1
20191019235916 69 90 6.0 18.0 0.00 0.00 0.00 63 1011.9
20191019235403 69 45 7.0 17.0 0.00 0.00 0.00 62 1012.0
20191019234853 69 45 6.0 17.0 0.00 0.00 0.00 62 1011.9
20191019234343 69 45 8.0 17.0 0.00 0.00 0.00 62 1011.9
20191019233833 69 90 4.0 16.0 0.00 0.00 0.00 62 1012.0
20191019233326 69 315 6.0 17.0 0.00 0.00 0.00 61 1011.9
20191019232812 69 45 8.0 20.0 0.00 0.00 0.00 61 1011.9
20191019232302 69 0 8.0 20.0 0.00 0.00 0.00 60 1012.0
20191019231752 69 0 8.0 19.0 0.00 0.00 0.00 60 1011.8
20191019231241 69 45 8.0 14.0 0.00 0.00 0.00 60 1011.9
20191019230736 69 293 5.0 17.0 0.00 0.00 0.00 60 1012.0
20191019230222 69 90 7.0 17.0 0.00 0.00 0.00 59 1012.0
20191019225711 70 90 11.0 24.0 0.00 0.00 0.00 59 1012.1
20191019225202 70 0 8.0 24.0 0.00 0.00 0.00 59 1012.1
20191019224651 70 45 11.0 17.0 0.00 0.00 0.00 60 1012.1
20191019224144 70 90 9.0 17.0 0.00 0.00 0.00 59 1012.1
20191019223630 70 180 5.0 15.0 0.00 0.00 0.00 59 1012.0
20191019223121 70 90 5.0 17.0 0.00 0.00 0.00 59 1012.0
20191019222611 70 0 8.0 17.0 0.00 0.00 0.00 58 1012.0
20191019222101 70 45 4.0 15.0 0.00 0.00 0.00 58 1012.0
20191019221553 70 135 6.0 15.0 0.00 0.00 0.00 57 1012.0
20191019221040 71 68 6.0 15.0 0.00 0.00 0.00 57 1011.9
20191019220529 71 90 6.0 15.0 0.00 0.00 0.00 57 1011.8
20191019220020 71 45 8.0 15.0 0.00 0.00 0.00 57 1011.9
20191019215510 71 45 6.0 15.0 0.00 0.00 0.00 57 1011.9
20191019215003 71 90 8.0 17.0 0.00 0.00 0.00 56 1011.8
20191019214449 71 45 8.0 19.0 0.00 0.00 0.00 56 1011.9
20191019213939 71 0 10.0 19.0 0.00 0.00 0.00 56 1011.8
20191019213429 71 45 4.0 17.0 0.00 0.00 0.00 56 1011.8
20191019212919 71 68 6.0 16.0 0.00 0.00 0.00 55 1011.6
20191019212412 71 45 6.0 17.0 0.00 0.00 0.00 55 1011.6
20191019211858 71 248 8.0 17.0 0.00 0.00 0.00 55 1011.5
20191019211349 72 0 10.0 17.0 0.00 0.00 0.00 55 1011.6
20191019210846 72 90 6.0 17.0 0.00 0.00 0.00 54 1011.6
20191019210328 72 90 4.0 17.0 0.00 0.00 0.00 54 1011.6
20191019205822 72 0 6.0 18.0 0.00 0.00 0.00 53 1011.6
20191019205307 72 0 5.0 18.0 0.00 0.00 0.00 51 1011.6
20191019204758 72 45 4.0 21.0 0.00 0.00 0.00 51 1011.6
20191019204248 72 0 8.0 21.0 0.00 0.00 0.00 50 1011.6
20191019203738 72 45 8.0 16.0 0.00 0.00 0.00 50 1011.6
20191019203230 73 45 4.0 21.0 0.00 0.00 0.00 52 1011.5
20191019202717 73 90 8.0 21.0 0.00 0.00 0.00 51 1011.5
20191019202207 73 90 5.0 20.0 0.00 0.00 0.00 51 1011.7
20191019201657 73 0 5.0 20.0 0.00 0.00 0.00 51 1011.6
20191019201146 73 0 8.0 19.0 0.00 0.00 0.00 52 1011.7
20191019200640 73 45 11.0 19.0 0.00 0.00 0.00 51 1011.5
20191019200127 73 90 10.0 22.0 0.00 0.00 0.00 51 1011.6
20191019195615 73 90 7.0 22.0 0.00 0.00 0.00 52 1011.6
20191019195107 73 90 10.0 20.0 0.00 0.00 0.00 52 1011.6
20191019194556 73 45 4.0 19.0 0.00 0.00 0.00 51 1011.7
20191019194049 74 90 8.0 19.0 0.00 0.00 0.00 51 1011.6
20191019193536 74 45 8.0 19.0 0.00 0.00 0.00 51 1011.7
20191019193025 74 45 8.0 19.0 0.00 0.00 0.00 52 1011.7
20191019192515 74 90 11.0 20.0 0.00 0.00 0.00 51 1011.7
20191019192005 74 90 8.0 20.0 0.00 0.00 0.00 51 1011.8
20191019191459 75 293 11.0 19.0 0.00 0.00 0.00 51 1011.7
20191019190945 75 68 10.0 21.0 0.00 0.00 0.00 51 1012.0
20191019190434 75 90 5.0 21.0 0.00 0.00 0.00 51 1012.2
20191019185925 75 90 7.0 18.0 0.00 0.00 0.00 51 1012.2
20191019185414 75 45 8.0 19.0 0.00 0.00 0.00 51 1012.3
20191019184908 75 225 7.0 20.0 0.00 0.00 0.00 50 1012.4
20191019184354 75 90 9.0 20.0 0.00 0.00 0.00 49 1012.6
20191019183844 75 68 7.0 25.0 0.00 0.00 0.00 50 1012.5
20191019183334 75 90 4.0 25.0 0.00 0.00 0.00 50 1012.7
20191019182824 76 90 9.0 20.0 0.00 0.00 0.00 49 1013.0
20191019182317 76 90 9.0 19.0 0.00 0.00 0.00 49 1012.9
20191019181804 75 0 11.0 18.0 0.00 0.00 0.00 49 1013.1
20191019181253 75 90 10.0 20.0 0.00 0.00 0.00 48 1013.1
20191019180744 75 0 6.0 20.0 0.00 0.00 0.00 48 1013.2
20191019180233 76 68 11.0 20.0 0.00 0.00 0.00 47 1013.5
20191019175727 76 45 9.0 23.0 0.00 0.00 0.00 46 1013.6
20191019175213 76 45 7.0 23.0 0.00 0.00 0.00 47 1013.7
20191019174702 76 45 10.0 22.0 0.00 0.00 0.00 46 1014.0
20191019174153 76 135 10.0 20.0 0.00 0.00 0.00 46 1013.8
20191019173642 76 45 9.0 20.0 0.00 0.00 0.00 46 1013.8
20191019173135 76 45 8.0 21.0 0.00 0.00 0.00 47 1014.1
20191019172629 76 45 7.0 21.0 0.00 0.00 0.00 48 1014.1
20191019172112 75 45 10.0 20.0 0.00 0.00 0.00 48 1014.2
20191019171602 75 135 9.0 25.0 0.00 0.00 0.00 48 1014.4
20191019171051 76 90 12.0 25.0 0.00 0.00 0.00 48 1014.4
20191019170545 76 90 8.0 20.0 0.00 0.00 0.00 49 1014.6
20191019170032 76 90 8.0 23.0 0.00 0.00 0.00 48 1014.8
20191019165522 76 45 8.0 23.0 0.00 0.00 0.00 48 1015.0
20191019165012 76 90 10.0 20.0 0.00 0.00 0.00 49 1015.2
20191019164501 77 45 7.0 20.0 0.00 0.00 0.00 49 1015.0
20191019163955 77 90 10.0 21.0 0.00 0.00 0.00 49 1015.3
20191019163441 77 135 8.0 22.0 0.00 0.00 0.00 49 1015.5
20191019162930 77 90 14.0 23.0 0.00 0.00 0.00 49 1015.4
20191019162420 77 90 10.0 23.0 0.00 0.00 0.00 49 1015.6
20191019161911 77 45 6.0 20.0 0.00 0.00 0.00 51 1015.8
20191019161403 76 45 9.0 19.0 0.00 0.00 0.00 51 1015.8
20191019160850 76 90 8.0 19.0 0.00 0.00 0.00 51 1016.1
20191019160339 76 45 8.0 19.0 0.00 0.00 0.00 53 1016.0
20191019155830 76 45 10.0 21.0 0.00 0.00 0.00 53 1016.2
20191019155319 76 45 8.0 21.0 0.00 0.00 0.00 53 1016.3
20191019154813 75 90 13.0 21.0 0.00 0.00 0.00 53 1016.4
20191019154259 75 90 10.0 25.0 0.00 0.00 0.00 54 1016.3
20191019153750 75 45 8.0 25.0 0.00 0.00 0.00 55 1016.3
20191019153239 75 338 11.0 22.0 0.00 0.00 0.00 55 1016.4
20191019152729 75 0 8.0 19.0 0.00 0.00 0.00 56 1016.5
20191019152222 74 90 8.0 19.0 0.00 0.00 0.00 56 1016.5
20191019151709 74 45 2.0 17.0 0.00 0.00 0.00 57 1016.6
20191019151158 73 45 9.0 22.0 0.00 0.00 0.00 58 1016.7
20191019150648 73 45 7.0 22.0 0.00 0.00 0.00 59 1016.8
20191019150138 72 293 8.0 19.0 0.00 0.00 0.00 60 1017.1
20191019145632 72 45 6.0 19.0 0.00 0.00 0.00 60 1017.2
20191019145117 72 45 8.0 19.0 0.00 0.00 0.00 60 1017.2
20191019144608 72 45 8.0 18.0 0.00 0.00 0.00 59 1017.5
20191019144057 72 45 8.0 18.0 0.00 0.00 0.00 59 1017.4
20191019143548 73 68 10.0 21.0 0.00 0.00 0.00 59 1017.5
20191019143040 73 90 7.0 21.0 0.00 0.00 0.00 58 1017.5
20191019142527 73 338 9.0 17.0 0.00 0.00 0.00 58 1017.5
20191019142016 73 45 9.0 18.0 0.00 0.00 0.00 58 1017.5
20191019141506 73 90 8.0 18.0 0.00 0.00 0.00 58 1017.6
20191019140957 73 315 4.0 19.0 0.00 0.00 0.00 58 1017.8
20191019140450 73 45 8.0 19.0 0.00 0.00 0.00 58 1017.6
20191019135936 73 90 8.0 16.0 0.00 0.00 0.00 60 1017.8
20191019135426 72 293 8.0 19.0 0.00 0.00 0.00 60 1017.8
20191019134916 72 90 8.0 22.0 0.00 0.00 0.00 59 1017.7
20191019134413 72 45 11.0 22.0 0.00 0.00 0.00 59 1017.8
20191019133859 72 90 8.0 21.0 0.00 0.00 0.00 60 1017.9
20191019133345 72 113 5.0 21.0 0.00 0.00 0.00 60 1017.9
20191019132836 72 90 9.0 21.0 0.00 0.00 0.00 61 1017.9
20191019132326 71 90 8.0 21.0 0.00 0.00 0.00 61 1017.9
20191019131815 71 90 6.0 19.0 0.00 0.00 0.00 61 1018.0
20191019131307 71 90 9.0 21.0 0.00 0.00 0.00 61 1018.0
20191019130755 71 135 8.0 21.0 0.00 0.00 0.00 61 1018.0
20191019130245 71 135 6.0 20.0 0.00 0.00 0.00 61 1018.0
20191019125735 72 135 8.0 21.0 0.00 0.00 0.00 61 1018.1
20191019125224 72 45 8.0 21.0 0.00 0.00 0.00 61 1018.2
20191019124717 72 0 10.0 20.0 0.00 0.00 0.00 61 1018.1
20191019124204 72 90 7.0 20.0 0.00 0.00 0.00 61 1018.2
20191019123654 72 293 8.0 26.0 0.00 0.00 0.00 62 1018.1
20191019123144 72 90 9.0 26.0 0.00 0.00 0.00 62 1018.2
20191019122634 71 315 8.0 23.0 0.00 0.00 0.00 62 1018.3
20191019122127 71 90 8.0 20.0 0.00 0.00 0.00 62 1018.4
20191019121614 71 113 11.0 20.0 0.00 0.00 0.00 62 1018.4
20191019121104 71 45 8.0 20.0 0.00 0.00 0.00 63 1018.5
20191019120553 71 0 6.0 17.0 0.00 0.00 0.00 63 1018.5
20191019120044 71 135 7.0 17.0 0.00 0.00 0.00 63 1018.6
20191019115536 70 45 7.0 16.0 0.00 0.00 0.00 64 1018.5
20191019115023 70 338 8.0 17.0 0.00 0.00 0.00 65 1018.4
20191019114513 69 45 6.0 17.0 0.00 0.00 0.00 65 1018.5
20191019114002 69 45 7.0 17.0 0.00 0.00 0.00 66 1018.4
20191019113453 69 135 7.0 15.0 0.00 0.00 0.00 67 1018.5
20191019112945 68 45 4.0 15.0 0.00 0.00 0.00 68 1018.5
20191019112432 67 90 4.0 17.0 0.00 0.00 0.00 69 1018.4
20191019111922 67 45 6.0 17.0 0.00 0.00 0.00 70 1018.4
20191019111412 66 90 5.0 15.0 0.00 0.00 0.00 71 1018.3
20191019110902 65 45 5.0 15.0 0.00 0.00 0.00 72 1018.3
20191019110355 65 45 7.0 13.0 0.00 0.00 0.00 72 1018.2
20191019105841 65 45 4.0 12.0 0.00 0.00 0.00 72 1018.3
20191019105331 64 45 4.0 12.0 0.00 0.00 0.00 73 1018.3
20191019104821 64 45 3.0 12.0 0.00 0.00 0.00 73 1018.3
20191019104311 64 225 4.0 11.0 0.00 0.00 0.00 73 1018.2
20191019103804 64 315 4.0 11.0 0.00 0.00 0.00 73 1018.1
20191019103251 64 0 2.0 11.0 0.00 0.00 0.00 73 1018.1
20191019102740 64 90 4.0 11.0 0.00 0.00 0.00 72 1018.2
20191019102230 64 0 3.0 12.0 0.00 0.00 0.00 72 1018.1
20191019101720 64 45 4.0 12.0 0.00 0.00 0.00 72 1018.1
20191019101213 64 90 4.0 11.0 0.00 0.00 0.00 72 1018.1
20191019100659 64 45 4.0 10.0 0.00 0.00 0.00 72 1018.1
20191019100157 64 0 4.0 11.0 0.00 0.00 0.00 72 1018.0
20191019095640 64 45 4.0 12.0 0.00 0.00 0.00 72 1018.0
20191019095129 64 45 4.0 15.0 0.00 0.00 0.00 71 1018.0
20191019094623 64 45 4.0 15.0 0.00 0.00 0.00 72 1018.0
20191019094110 64 0 4.0 14.0 0.00 0.00 0.00 71 1018.0
20191019093559 64 45 3.0 13.0 0.00 0.00 0.00 71 1018.0
20191019093048 64 0 4.0 13.0 0.00 0.00 0.00 71 1017.9
20191019092538 64 0 5.0 11.0 0.00 0.00 0.00 71 1017.9
20191019092032 64 0 5.0 11.0 0.00 0.00 0.00 71 1017.8
20191019091518 64 135 4.0 11.0 0.00 0.00 0.00 71 1017.9
20191019091008 64 90 5.0 11.0 0.00 0.00 0.00 71 1017.9
20191019090458 64 45 6.0 10.0 0.00 0.00 0.00 71 1017.9
20191019085948 64 90 4.0 10.0 0.00 0.00 0.00 71 1017.9
20191019085441 64 45 4.0 10.0 0.00 0.00 0.00 71 1017.8
20191019084927 64 45 2.0 10.0 0.00 0.00 0.00 71 1017.8
20191019084417 64 113 3.0 11.0 0.00 0.00 0.00 71 1017.8
20191019083907 64 45 4.0 15.0 0.00 0.00 0.00 70 1017.7
20191019083357 64 0 4.0 15.0 0.00 0.00 0.00 70 1017.7
20191019082850 64 135 4.0 11.0 0.00 0.00 0.00 70 1017.7
20191019082337 64 45 4.0 11.0 0.00 0.00 0.00 70 1017.6
20191019081827 64 45 4.0 11.0 0.00 0.00 0.00 70 1017.5
20191019081317 64 45 6.0 11.0 0.00 0.00 0.00 70 1017.5
20191019080806 64 0 3.0 11.0 0.00 0.00 0.00 70 1017.5
20191019080259 64 45 4.0 11.0 0.00 0.00 0.00 70 1017.6
20191019075746 64 45 5.0 11.0 0.00 0.00 0.00 70 1017.6
20191019075236 64 90 4.0 12.0 0.00 0.00 0.00 70 1017.6
20191019074725 64 0 4.0 12.0 0.00 0.00 0.00 70 1017.6
20191019074215 65 45 5.0 11.0 0.00 0.00 0.00 70 1017.7
20191019073709 65 45 3.0 11.0 0.00 0.00 0.00 69 1017.8
20191019073156 65 0 4.0 11.0 0.00 0.00 0.00 69 1017.9
20191019072645 65 0 5.0 11.0 0.00 0.00 0.00 69 1017.9
20191019072135 65 45 4.0 14.0 0.00 0.00 0.00 69 1017.8
20191019071625 65 45 5.0 15.0 0.00 0.00 0.00 69 1017.8
20191019071118 65 45 5.0 17.0 0.00 0.00 0.00 68 1017.7
20191019070604 65 0 7.0 17.0 0.00 0.00 0.00 68 1017.7